(4718) Araki = 1977 DM1 = 1986 VM3 = 1982 RP1 = 1977 GD = 1988 CC7 = 1990 VP3

Discovered at Kitami on 1990-11-13 by T. Fujii and K. Watanabe.
(4718) Araki = 1990 VP3

Named in honor of Chikara Araki (1946- ), an astronomical photographer in Hokkaido. He has formed a group called `Konpeito' and has been taking a lot of impressive astronomical photographs. [Ref: Minor Planet Circ. 22503]

Orbit

Orbit type: Main Belt

Note: WebGL enabled browser required.

epoch2024-03-31.0
epoch JD2460400.5
perihelion date2020-12-31.60217
perihelion JD2459215.10217
argument of perihelion (°)221.40990
ascending node (°)334.44903
inclination (°)8.02889
eccentricity0.1593395
perihelion distance (AU)1.9839194
Tisserand w.r.t. Jupiter3.5
ΔV w.r.t. Earth (km/sec)9.1
semimajor axis (AU)2.3599532
mean anomaly (°)322.26481
mean daily motion (°/day)0.27186220
aphelion distance (AU)2.736
period (years)3.63
P-vector [x]-0.95914098
P-vector [y]-0.20860455
P-vector [z]-0.19113534
Q-vector [x]0.27644059
Q-vector [y]-0.83480630
Q-vector [z]-0.47610821
absolute magnitude13.66
phase slope0.15
uncertainty0
referenceMPEC 2024-F28
observations used7686
oppositions24
arc length (days)17194
first opposition used1977
last opposition used2024
residual rms (arc-secs)0.38
perturbers coarse indicatorM-v
perturbers precise indicator003Ek
first observation date used1977-02-18.0
last observation date used2024-03-17.0
computer nameMPCLINUX
JD of orbit computation2456966.936212
perihelion JD uncertainty (days)4.2573E-05
argument of perihelion uncertainty (°)2.1895E-05
ascending node uncertainty (°)1.9073E-05
inclination uncertainty (°)3.5645E-06
eccentricity uncertainty 2.8306E-08
perihelion distance uncertainty (AU)6.5685E-08
Minimum Orbit Intersection Distances (in AU)
for orbit epoch: 2460400.5, reference: E2024-GB3
Mercury1.56274
Venus1.27435
Earth0.99195
Mars0.37029
Jupiter2.2511
Saturn6.54653
Uranus16.3829
Neptune27.1231

Observations

4810 total observations over interval: 1977 02 18.55569 – 2024 03 17.311717
These data are available for download (format description).

Date (UT) J2000 RA J2000 Dec Magn Location Ref
1977 02 18.55569 10 02 33.29 +13 45 14.7 17.7   381 – Tokyo-Kiso MPC 5582
1977 02 18.59487 10 02 30.46 +13 45 15.3 17.7   381 – Tokyo-Kiso MPC 5582
1977 02 19.49596 10 01 28.79 +13 45 29.2 17.5   381 – Tokyo-Kiso MPC 5582
1977 02 19.53208 10 01 26.33 +13 45 30.1 17.5   381 – Tokyo-Kiso MPC 5582
1977 04 10.53416 09 33 14.75 +11 47 41.2 17.5   381 – Tokyo-Kiso MPC 7316
1977 04 10.55839 09 33 15.09 +11 47 35.6 17.5   381 – Tokyo-Kiso MPC 7316
1982 09 14.96711 00 04 06.42 +06 08 08.7 17.3   046 – Klet Observatory, Ceske Budejovice MPC 7285
1982 09 14.98377 00 04 05.38 +06 08 08.0   046 – Klet Observatory, Ceske Budejovice MPC 7285
1982 09 15.97465 00 03 06.51 +06 04 50.0   046 – Klet Observatory, Ceske Budejovice MPC 7285
1982 09 15.98924 00 03 05.87 +06 04 48.1   046 – Klet Observatory, Ceske Budejovice MPC 7285
1982 09 16.93823 00 02 09.65 +06 01 37.3   046 – Klet Observatory, Ceske Budejovice MPC 7285
1982 09 16.95218 00 02 08.79 +06 01 32.8   046 – Klet Observatory, Ceske Budejovice MPC 7285
1986 11 04.00069 01 49 38.89 +23 11 42.9   010 – Caussols MPC 11387
1986 11 04.02153 01 49 37.65 +23 11 37.2   010 – Caussols MPC 11387
1986 11 04.03194 01 49 36.94 +23 11 33.3   010 – Caussols MPC 11387
1986 11 05.87639 01 47 43.07 +23 02 20.2   010 – Caussols MPC 11387
1986 11 05.89722 01 47 42.65 +23 02 14.9   010 – Caussols MPC 11387
1988 02 13.07178 11 48 39.75 -00 40 38.3 16.2   054 – Brorfelde MPC 12888
1988 02 13.08394 11 48 39.38 -00 40 41.8   054 – Brorfelde MPC 12888
1990 11 13.61111 05 07 46.58 +35 27 44.6 17   400 – Kitami MPC 17314
1990 11 13.63194 05 07 45.34 +35 27 44.1   400 – Kitami MPC 17314
1990 11 15.59583 05 05 56.65 +35 31 01.8 16.5   400 – Kitami MPC 17314
1990 11 15.61667 05 05 55.32 +35 31 03.8   400 – Kitami MPC 17314
1990 12 15.58889 04 30 13.25 +34 51 58.3 16.5   400 – Kitami MPC 17515
1990 12 15.61111 04 30 11.60 +34 51 53.4   400 – Kitami MPC 17515
1990 12 20.55382 04 24 31.77 +34 29 48.6 16.5   400 – Kitami MPC 17515
1990 12 20.57500 04 24 30.23 +34 29 40.4   400 – Kitami MPC 17515
1993 10 14.29514 00 24 21.25 +11 17 41.1   675 – Palomar Mountain MPC 28176
1993 10 14.33194 00 24 19.12 +11 17 30.9   675 – Palomar Mountain MPC 28176
1993 10 20.24514 00 19 00.61 +10 49 41.8 16.0 V 675 – Palomar Mountain MPS 6508
1993 10 20.26892 00 18 59.32 +10 49 35.5   675 – Palomar Mountain MPS 6508
1993 10 21.24896 00 18 09.99 +10 44 59.9   675 – Palomar Mountain MPS 6508
1999 02 23.37470 13 27 03.53 -15 49 28.9 17.5   704 – Lincoln Laboratory ETS, New Mexico MPS 4370
1999 02 23.38417 13 27 03.61 -15 49 33.3 17.5   704 – Lincoln Laboratory ETS, New Mexico MPS 4370
1999 02 23.39391 13 27 03.69 -15 49 38.3 17.5   704 – Lincoln Laboratory ETS, New Mexico MPS 4370
1999 02 23.40371 13 27 03.37 -15 49 46.7 18.7   704 – Lincoln Laboratory ETS, New Mexico MPS 4370
1999 02 26.31019 13 27 12.21 -16 13 32.8 16.6   704 – Lincoln Laboratory ETS, New Mexico MPS 4370
1999 02 26.32057 13 27 12.19 -16 13 41.2 16.6   704 – Lincoln Laboratory ETS, New Mexico MPS 4370
1999 02 26.33091 13 27 12.14 -16 13 46.1 16.2   704 – Lincoln Laboratory ETS, New Mexico MPS 4370
1999 02 26.34127 13 27 12.09 -16 13 51.1 16.2   704 – Lincoln Laboratory ETS, New Mexico MPS 4370
1999 02 26.35167 13 27 12.08 -16 13 56.7 16.2   704 – Lincoln Laboratory ETS, New Mexico MPS 4370
1999 03 10.27535 13 24 35.58 -17 37 01.0   808 – El Leoncito MPS 4672
1999 03 10.31667 13 24 34.39 -17 37 14.9   808 – El Leoncito MPS 4672
1999 03 22.35326 13 16 55.82 -18 32 06.5 17.9   704 – Lincoln Laboratory ETS, New Mexico MPS 4370
1999 03 22.36963 13 16 55.00 -18 32 09.0   704 – Lincoln Laboratory ETS, New Mexico MPS 4370
1999 03 22.38597 13 16 54.11 -18 32 11.7   704 – Lincoln Laboratory ETS, New Mexico MPS 4370
1999 03 22.40226 13 16 53.28 -18 32 15.2 18.3   704 – Lincoln Laboratory ETS, New Mexico MPS 4370
1999 04 14.37450 12 54 11.24 -18 42 37.0 16.6   704 – Lincoln Laboratory ETS, New Mexico MPS 4672
1999 04 14.38495 12 54 10.47 -18 42 35.5 17.3   704 – Lincoln Laboratory ETS, New Mexico MPS 4672
1999 04 14.39648 12 54 09.72 -18 42 36.2   704 – Lincoln Laboratory ETS, New Mexico MPS 4672
1999 04 15.21837 12 53 20.50 -18 40 55.6 16.8   704 – Lincoln Laboratory ETS, New Mexico MPS 4672
1999 04 15.23534 12 53 19.44 -18 40 53.9   704 – Lincoln Laboratory ETS, New Mexico MPS 4672
1999 04 15.25239 12 53 18.37 -18 40 51.1 17.2   704 – Lincoln Laboratory ETS, New Mexico MPS 4672
1999 04 15.26935 12 53 17.27 -18 40 50.1   704 – Lincoln Laboratory ETS, New Mexico MPS 4672
1999 04 15.28636 12 53 16.24 -18 40 47.6   704 – Lincoln Laboratory ETS, New Mexico MPS 4672
1999 04 16.33162 12 52 13.60 -18 38 31.2 15.2   704 – Lincoln Laboratory ETS, New Mexico MPS 4672
1999 04 16.35160 12 52 12.31 -18 38 29.1 15.6   704 – Lincoln Laboratory ETS, New Mexico MPS 4672
1999 04 16.37161 12 52 11.03 -18 38 26.6 15.6   704 – Lincoln Laboratory ETS, New Mexico MPS 4672
1999 04 16.39199 12 52 09.74 -18 38 23.8 15.5   704 – Lincoln Laboratory ETS, New Mexico MPS 4672
1999 04 17.22109 12 51 21.61 -18 36 28.1 17.6   704 – Lincoln Laboratory ETS, New Mexico MPS 4672
1999 04 17.23806 12 51 20.38 -18 36 26.5   704 – Lincoln Laboratory ETS, New Mexico MPS 4672
1999 04 17.25501 12 51 19.46 -18 36 24.3   704 – Lincoln Laboratory ETS, New Mexico MPS 4672
1999 04 17.27204 12 51 18.39 -18 36 21.8   704 – Lincoln Laboratory ETS, New Mexico MPS 4672
1999 04 17.28898 12 51 17.28 -18 36 19.6 17.8   704 – Lincoln Laboratory ETS, New Mexico MPS 4672
1999 04 20.14489 12 48 35.29 -18 29 02.6 16.8   704 – Lincoln Laboratory ETS, New Mexico MPS 4672
1999 04 20.16132 12 48 34.34 -18 28 59.4 17.0   704 – Lincoln Laboratory ETS, New Mexico MPS 4672
1999 04 20.17762 12 48 33.39 -18 28 55.6 17.2   704 – Lincoln Laboratory ETS, New Mexico MPS 4672
1999 04 20.19389 12 48 32.31 -18 28 52.2   704 – Lincoln Laboratory ETS, New Mexico MPS 4672
1999 04 20.21028 12 48 31.37 -18 28 50.8   704 – Lincoln Laboratory ETS, New Mexico MPS 4672
1999 05 06.29475 12 37 14.79 -17 39 01.4 17.3   704 – Lincoln Laboratory ETS, New Mexico MPS 5390
1999 05 06.30469 12 37 14.52 -17 38 58.6 17.3   704 – Lincoln Laboratory ETS, New Mexico MPS 5390
1999 05 06.32463 12 37 13.69 -17 38 53.4 18.4   704 – Lincoln Laboratory ETS, New Mexico MPS 5390
1999 05 06.33426 12 37 13.47 -17 38 50.2 18.4   704 – Lincoln Laboratory ETS, New Mexico MPS 5390
1999 05 16.15832 12 34 35.58 -17 12 04.4 15.4 R 699 – Lowell Observatory-LONEOS MPS 5769
1999 05 16.18375 12 34 35.32 -17 12 00.9   699 – Lowell Observatory-LONEOS MPS 5769
1999 05 16.20920 12 34 35.16 -17 11 57.4   699 – Lowell Observatory-LONEOS MPS 5769
1999 06 09.16875 12 42 21.71 -16 56 50.4 17.1   704 – Lincoln Laboratory ETS, New Mexico MPS 5390
1999 06 09.17861 12 42 22.18 -16 56 51.7   704 – Lincoln Laboratory ETS, New Mexico MPS 5390
1999 06 09.18828 12 42 22.54 -16 56 51.5 17.6   704 – Lincoln Laboratory ETS, New Mexico MPS 5390
1999 06 09.19798 12 42 22.94 -16 56 52.0 17.8   704 – Lincoln Laboratory ETS, New Mexico MPS 5390
1999 06 09.20765 12 42 23.34 -16 56 53.2   704 – Lincoln Laboratory ETS, New Mexico MPS 5391
1999 06 13.17720 12 45 23.36 -17 02 24.9 15.8 R 699 – Lowell Observatory-LONEOS MPS 5769
1999 06 13.18992 12 45 23.94 -17 02 26.1   699 – Lowell Observatory-LONEOS MPS 5769
1999 06 13.20264 12 45 24.50 -17 02 27.6   699 – Lowell Observatory-LONEOS MPS 5769
2000 07 07.38235 23 48 39.70 -01 07 45.7 18.2   704 – Lincoln Laboratory ETS, New Mexico MPS 17232
2000 07 07.39462 23 48 39.93 -01 07 41.3 18.0   704 – Lincoln Laboratory ETS, New Mexico MPS 17232
2000 07 07.40697 23 48 40.12 -01 07 38.9 18.3   704 – Lincoln Laboratory ETS, New Mexico MPS 17232
2000 07 07.41912 23 48 40.32 -01 07 35.8 18.2   704 – Lincoln Laboratory ETS, New Mexico MPS 17232
2000 07 07.43141 23 48 40.52 -01 07 32.2 17.9   704 – Lincoln Laboratory ETS, New Mexico MPS 17232
